Location: Azul
(36.7830°S, 59.8500°W)
Time: 17:41:33
(UTC-03:00)

AIST 2D - Pass Details

Date: 26 October 2021
Orbit: 445 x 462 km, 97.1° (Epoch: 06 December)

Event Time Altitude Azimuth Distance (km) Brightness Sun altitude
Exits shadow 21:43:34 15° 159° (SSE) 1,304 ? -24.9°
Drops below altitude 10° 21:44:24 10° 168° (SSE) 1,605 ? -25.0°
Sets 21:46:37 0° 179° (S) 2,486 ? -25.3°
